SCP
0 0 0 1 1 1 1 1 1 1 1 0 0 0 0 0 0 0 0 0 0 0 -0 -0 -0 -0 -0 -0 -0 -0 -0 -0 -0 -0 -0 -0 -0 -0 -0 -0 -0 -0 -0
0 0 0 1 1 1 2 2 2 1 1 1 1 1 1 0 0 0 0 0 0 0 0 0 -0 -0 -0 -0 -0 -0 -0 -0 -0 -0 -0 -0 -0 -0 -0 0 -0 -0 -0
0 0 0 1 1 1 1 1 2 2 1 1 1 1 1 1 1 0 0 0 0 0 0 0 0 -0 0 0 -0 -0 -0 -0 -0 0 -0 -0 -0 -0 -0 -0 -0 -0 -0
-0 0 0 0 0 1 1 1 2 2 1 1 1 1 1 1 1 1 1 0 0 0 0 0 0 0 0 0 0 -0 -0 -0 -0 0 0 -0 -0 -0 -0 -0 -0 -0 -0
0 0 0 0 0 0 1 1 1 2 2 2 1 1 1 1 1 1 1 0 0 0 0 0 0 0 0 0 0 0 -0 -0 -0 -0 0 0 0 -0 -0 -0 -0 -0 0
0 0 0 0 0 0 0 1 1 1 2 2 2 2 1 1 1 1 1 1 0 0 0 0 0 0 0 0 0 0 0 -0 -0 0 0 0 0 -0 -0 -0 0 0 0
-0 0 0 0 0 1 1 0 1 1 1 2 2 2 1 1 1 1 1 1 1 1 0 0 0 0 0 0 0 0 0 0 0 0 0 0 0 -0 -0 -0 -0 0 0
0 -0 0 0 0 0 0 0 0 1 1 1 2 2 2 1 1 1 1 1 1 1 0 1 0 0 0 0 0 0 0 0 0 0 0 0 0 -0 -0 -0 0 0 0
0 0 -0 -0 0 0 0 0 0 0 0 1 2 3 2 2 2 2 1 1 1 1 1 1 0 0 0 0 0 0 0 0 0 0 0 0 0 0 0 0 0 0 0
0 0 0 -0 -0 0 0 0 0 0 0 1 1 2 2 2 2 1 1 1 1 1 1 1 0 0 0 0 0 0 0 0 0 0 0 0 0 0 0 0 0 0 0
0 0 0 0 0 0 0 0 0 0 0 1 1 1 1 4 3 1 1 1 1 1 1 1 0 0 0 0 0 0 0 0 0 0 0 0 0 0 0 0 0 0 0
-0 -0 0 -0 0 0 0 0 0 0 0 1 1 1 2 2 2 2 1 1 1 1 1 0 0 0 0 0 0 0 0 0 0 0 0 0 0 0 0 0 0 0 0
-0 -0 -0 -0 -0 0 0 0 0 0 1 1 1 1 2 2 2 3 3 2 2 1 2 1 0 0 0 0 0 0 0 0 0 0 0 0 0 0 0 0 0 0 0
-0 -0 -0 -0 -0 -0 -0 0 0 0 0 1 1 1 1 2 2 3 3 3 3 3 2 1 0 0 0 0 0 0 0 0 0 0 0 0 0 0 0 0 0 0 0
-0 -0 -0 -0 -0 -0 -0 -0 0 0 0 1 1 1 1 2 2 3 3 3 3 3 1 1 0 0 0 0 0 0 0 0 0 0 0 0 0 0 0 0 0 0 0
-0 -0 -0 -0 0 -0 -0 -0 0 0 0 0 1 1 1 2 2 2 2 2 3 2 1 0 0 0 0 0 0 0 0 0 0 0 0 0 0 0 0 0 0 0 0
0 0 -0 -0 -0 0 -0 -0 -0 0 0 0 1 1 1 1 1 2 2 2 2 2 0 0 0 0 0 0 0 0 0 0 0 0 0 0 0 0 0 0 0 0 0
0 0 0 0 -0 -0 0 -0 -0 0 0 0 0 1 1 1 1 1 2 1 1 0 0 0 0 0 0 0 0 0 0 0 0 0 0 0 0 0 0 0 0 0 0
0 0 0 0 0 -0 0 -0 -0 0 0 0 0 1 1 1 1 1 1 1 0 0 0 0 0 0 0 0 0 0 0 0 0 0 0 0 0 0 0 0 0 0 0
0 0 0 0 0 0 0 0 -0 0 0 0 0 0 1 1 1 1 1 0 0 0 0 0 0 0 0 0 0 0 0 0 0 0 0 0 0 0 0 0 0 0 0
0 0 0 0 0 0 0 0 -0 0 0 0 0 0 1 1 1 1 0 0 0 0 0 0 0 0 0 0 0 0 0 0 0 0 0 0 0 0 0 0 0 0 0
0 0 0 0 0 0 0 0 -0 -0 0 0 0 0 1 1 1 1 0 0 0 0 0 0 0 0 0 0 0 0 0 0 0 0 0 0 0 0 0 0 0 0 0
0 0 0 0 0 0 0 0 0 -0 0 0 0 0 1 1 0 0 0 0 0 0 0 0 0 0 0 0 0 0 0 0 0 0 0 0 0 0 0 0 0 0 0
0 0 0 0 0 0 0 0 0 -0 0 0 0 0 0 1 0 0 0 0 0 0 0 0 0 0 0 0 0 0 0 0 0 0 0 0 0 0 0 0 0 0 0
0 0 0 0 0 0 0 0 0 0 0 0 0 0 0 0 0 0 0 0 0 0 0 0 0 0 0 0 0 0 0 0 0 0 0 0 0 0 0 0 0 0 0
0 0 0 0 0 0 0 0 0 0 0 0 0 1 1 0 0 0 0 0 0 0 0 0 0 0 0 0 0 0 0 0 0 0 0 0 0 0 0 0 0 0 0
Wind_Speed_500mb
30 33 32 26 33 41 59 62 62 64 61 60 57 58 59 60 59 58 57 56 53 48 44 41 40 38 35 33 31 31 31 37 42 34 35 38 42 42 41 40 36 38 39
32 36 33 26 29 40 56 63 67 68 66 65 62 63 63 63 61 60 60 57 56 52 45 42 42 40 36 34 34 32 34 39 40 41 41 39 40 40 41 39 35 39 39
37 42 42 35 27 32 50 65 71 71 70 69 66 66 67 66 63 62 62 60 56 53 48 44 44 42 38 36 34 35 35 39 39 41 44 37 39 39 38 38 38 37 37
40 41 41 41 24 29 41 60 70 73 74 72 69 69 70 69 66 64 64 62 59 55 51 47 46 45 40 37 36 37 37 38 39 43 38 35 37 38 39 37 37 35 34
38 36 39 40 30 23 43 50 68 76 77 75 73 71 73 72 70 67 67 64 61 58 54 50 47 45 43 40 39 39 40 41 41 41 35 37 37 40 39 39 37 36 34
45 40 37 38 30 21 38 50 64 75 79 79 77 76 77 77 75 72 70 66 64 60 58 54 52 49 46 43 43 44 42 43 44 35 34 40 38 43 38 39 37 35 34
58 49 40 39 37 17 39 52 62 74 81 83 82 80 79 79 81 77 75 70 67 63 62 59 55 54 49 47 46 47 45 44 41 37 34 34 35 46 41 38 36 35 31
59 62 54 47 44 28 24 51 65 73 80 85 85 85 82 81 84 83 79 76 72 68 64 61 61 58 54 51 50 49 47 47 43 41 35 31 39 42 40 39 37 35 33
57 62 62 57 49 38 34 41 62 71 81 83 87 90 88 85 86 88 84 81 77 72 66 63 62 59 59 56 53 51 50 47 37 41 39 36 39 37 39 39 40 37 35
56 59 64 58 48 41 40 40 47 70 80 84 84 91 92 90 88 89 86 82 81 77 71 66 62 62 62 60 56 55 53 50 38 41 40 39 42 40 33 31 30 34 32
81 79 70 71 65 50 42 47 44 56 76 83 84 88 95 93 90 88 88 86 83 79 76 72 67 65 67 63 59 58 55 53 44 42 38 40 36 32 30 30 29 28 30
94 102 88 88 85 75 54 44 44 44 66 79 83 86 94 96 94 92 90 89 86 85 81 77 73 70 71 68 64 61 61 54 51 49 47 39 36 32 30 28 28 29 29
67 79 96 96 97 92 85 57 47 44 49 70 81 88 91 97 99 96 93 91 87 86 84 81 80 76 76 75 76 73 68 60 58 56 50 43 37 34 32 32 31 31 29
64 69 76 80 91 99 98 88 64 49 43 63 79 87 91 98 100 103 98 94 92 88 89 91 89 83 81 82 80 77 78 67 64 59 50 44 40 37 35 34 33 31 29
67 64 61 68 77 85 95 103 88 68 52 53 66 86 88 96 102 103 104 100 97 94 94 98 97 92 91 87 83 84 81 77 69 59 51 45 41 39 38 36 34 32 30
63 63 60 65 70 78 84 95 99 89 66 59 64 78 86 92 98 100 103 105 101 103 103 105 106 99 96 92 89 89 86 80 72 62 52 47 42 43 42 40 37 34 32
67 65 63 61 67 72 75 78 83 96 87 61 66 76 83 84 92 101 104 106 107 109 111 110 108 103 96 94 92 90 88 83 75 64 56 50 48 44 43 42 39 36 34
64 66 67 64 63 68 76 67 67 70 90 81 66 74 84 87 84 90 108 107 111 115 121 121 116 110 98 99 97 93 91 84 76 66 59 55 54 50 45 43 40 39 39
62 65 66 65 65 70 78 70 67 74 75 93 73 74 84 90 88 84 98 106 115 119 126 124 123 114 108 106 103 100 96 87 76 69 63 59 57 51 47 45 41 41 38
50 56 60 65 67 64 69 70 77 82 87 88 88 78 81 88 91 91 92 108 111 117 119 127 119 112 107 119 113 107 95 86 77 70 65 63 60 56 50 46 39 40 39
49 51 55 55 65 64 70 79 77 81 83 79 95 84 83 89 92 89 98 97 111 115 118 122 123 128 119 117 122 92 89 83 75 69 67 65 63 59 54 50 46 43 45
55 54 57 59 69 63 70 78 72 77 83 78 83 86 82 87 92 88 101 104 118 117 119 127 124 129 132 131 96 98 55 59 66 68 67 65 63 60 57 53 50 48 47
57 57 57 59 63 68 65 72 68 75 81 78 73 80 86 91 93 96 96 105 102 108 115 131 134 133 135 122 111 73 38 27 68 68 65 62 61 60 58 55 52 49 47
61 59 60 62 63 70 75 71 70 71 76 82 78 82 85 90 96 93 96 88 102 110 108 106 112 119 118 126 121 76 73 63 42 41 63 64 63 62 60 58 55 50 48
59 59 59 59 61 68 73 71 70 71 81 77 76 72 84 94 98 92 88 88 87 87 103 101 124 138 132 142 136 117 79 62 62 52 60 68 66 66 63 60 57 53 51
57 56 57 56 64 64 65 74 87 76 77 76 78 73 88 100 96 94 86 82 96 76 85 87 99 112 122 138 132 119 96 85 76 62 52 73 72 71 70 65 62 59 53
Wind_Direction_500mb
350 349 338 285 257 244 234 239 236 222 215 208 204 199 194 193 191 190 189 184 180 182 181 175 174 169 165 159 155 154 149 149 145 144 141 139 140 140 139 140 137 139 145
356 354 355 326 282 249 237 234 231 225 218 210 205 202 198 195 195 195 191 189 184 184 184 179 176 174 171 165 160 159 150 151 154 150 141 138 140 142 142 145 141 141 144
355 351 355 356 315 273 239 231 227 227 221 213 207 204 200 198 197 197 195 192 190 185 186 184 179 178 177 171 167 163 157 149 153 153 147 140 144 143 144 150 146 145 142
348 354 348 352 328 268 244 234 228 229 223 215 209 206 202 200 198 199 198 195 194 189 188 185 185 181 177 176 174 170 160 153 155 156 141 144 145 147 145 149 153 150 148
332 337 346 343 347 282 246 235 229 227 224 217 211 208 205 203 201 200 201 198 197 194 190 188 187 186 181 181 179 175 166 159 154 153 152 154 146 147 147 146 150 154 154
309 326 333 336 340 285 255 242 233 229 224 221 213 211 207 206 205 202 204 202 199 196 193 187 190 191 187 184 181 178 172 165 159 155 156 164 160 155 154 156 151 148 149
293 306 317 315 328 305 256 245 239 232 225 222 217 213 211 211 209 206 205 205 203 198 197 192 193 195 192 186 184 181 178 172 162 156 159 157 161 164 160 156 155 154 154
292 294 299 301 313 296 261 251 243 236 229 224 221 217 213 213 212 210 209 207 205 203 200 199 196 191 193 189 187 185 181 178 165 163 160 165 163 162 162 163 164 164 163
283 284 290 292 296 298 265 247 245 238 231 226 224 220 214 214 213 213 211 210 208 207 204 201 201 192 192 192 191 188 184 181 171 169 162 170 161 166 168 173 177 175 179
279 277 283 281 284 293 276 262 244 238 235 231 226 223 219 216 215 216 215 213 210 208 207 203 204 195 194 193 192 190 187 184 176 171 164 175 174 178 180 180 180 180 182
289 288 287 285 284 287 293 283 245 243 235 235 231 226 224 221 218 218 216 215 214 211 209 206 208 200 195 196 194 194 190 185 184 180 177 186 187 193 192 190 191 187 189
289 277 281 285 283 284 286 285 270 236 247 235 233 231 226 225 224 218 216 216 216 214 211 209 209 200 196 195 194 196 194 190 190 190 191 193 196 199 203 204 203 202 202
292 290 283 278 280 279 282 282 282 256 252 243 237 232 228 226 224 221 219 216 216 217 212 210 209 201 198 195 195 195 197 195 194 193 195 197 204 211 213 213 208 205 203
286 286 291 285 279 277 277 277 277 278 248 252 241 234 230 227 225 223 220 217 216 215 213 211 210 207 201 199 199 194 199 197 197 197 200 202 206 213 212 206 201 199 198
282 286 286 288 284 282 275 273 271 272 265 251 248 239 233 228 227 225 222 221 218 217 214 212 212 211 204 201 201 199 199 200 200 201 206 207 208 207 205 203 202 199 199
281 281 283 284 286 283 279 272 268 267 268 255 247 243 237 232 227 226 224 222 219 219 216 215 216 214 207 203 201 202 201 200 202 204 208 208 209 206 201 201 202 201 199
280 279 278 278 283 278 279 274 270 267 264 263 251 242 242 237 230 227 224 222 221 221 220 219 218 217 209 203 203 202 202 202 203 205 208 210 205 205 205 204 200 200 200
281 279 278 275 273 273 272 273 266 264 264 261 260 243 238 238 236 225 226 226 224 222 222 219 218 214 211 203 202 202 206 204 203 205 207 207 202 200 202 204 201 200 200
281 278 276 274 272 271 266 271 267 261 263 258 258 248 238 237 235 233 230 225 226 223 226 224 218 216 208 202 200 201 202 203 204 205 207 204 203 200 200 201 203 205 201
283 278 274 273 271 267 262 263 266 265 255 256 252 251 242 236 236 233 224 225 221 224 223 224 221 215 211 202 197 196 194 197 201 204 204 201 201 203 203 201 192 194 197
288 284 277 273 268 265 266 265 264 263 256 253 250 252 244 237 235 231 228 222 226 234 229 227 221 219 206 200 189 185 187 193 196 199 200 201 201 201 201 202 200 199 197
293 288 279 273 268 264 262 259 258 258 259 253 251 251 246 237 231 229 231 230 227 229 232 225 223 210 205 198 183 177 163 179 192 195 198 200 200 201 201 203 205 203 203
290 287 281 273 269 264 257 257 255 255 259 247 243 243 238 233 230 227 229 228 228 233 229 220 218 212 200 197 190 176 157 178 184 192 196 199 200 201 203 204 206 206 206
292 286 280 275 267 263 255 250 247 248 248 243 237 236 233 231 226 225 223 226 229 228 223 223 228 217 203 209 191 179 180 189 177 176 197 201 202 204 205 205 207 209 209
294 289 282 276 266 263 255 243 238 240 246 241 236 233 231 222 218 224 220 217 221 230 228 231 220 212 214 201 203 191 184 182 188 179 191 202 206 208 210 209 209 210 212
297 290 285 276 267 266 254 241 236 238 242 240 229 227 220 211 219 218 217 219 224 230 232 226 229 210 214 204 198 185 185 177 182 194 196 201 206 210 210 212 212 210 212
Wind_Speed_850mb
30 33 32 26 33 41 59 62 62 64 61 60 57 58 59 60 59 58 57 56 53 48 44 41 40 38 35 33 31 31 31 37 42 34 35 38 42 42 41 40 36 38 39
32 36 33 26 29 40 56 63 67 68 66 65 62 63 63 63 61 60 60 57 56 52 45 42 42 40 36 34 34 32 34 39 40 41 41 39 40 40 41 39 35 39 39
37 42 42 35 27 32 50 65 71 71 70 69 66 66 67 66 63 62 62 60 56 53 48 44 44 42 38 36 34 35 35 39 39 41 44 37 39 39 38 38 38 37 37
40 41 41 41 24 29 41 60 70 73 74 72 69 69 70 69 66 64 64 62 59 55 51 47 46 45 40 37 36 37 37 38 39 43 38 35 37 38 39 37 37 35 34
38 36 39 40 30 23 43 50 68 76 77 75 73 71 73 72 70 67 67 64 61 58 54 50 47 45 43 40 39 39 40 41 41 41 35 37 37 40 39 39 37 36 34
45 40 37 38 30 21 38 50 64 75 79 79 77 76 77 77 75 72 70 66 64 60 58 54 52 49 46 43 43 44 42 43 44 35 34 40 38 43 38 39 37 35 34
58 49 40 39 37 17 39 52 62 74 81 83 82 80 79 79 81 77 75 70 67 63 62 59 55 54 49 47 46 47 45 44 41 37 34 34 35 46 41 38 36 35 31
59 62 54 47 44 28 24 51 65 73 80 85 85 85 82 81 84 83 79 76 72 68 64 61 61 58 54 51 50 49 47 47 43 41 35 31 39 42 40 39 37 35 33
57 62 62 57 49 38 34 41 62 71 81 83 87 90 88 85 86 88 84 81 77 72 66 63 62 59 59 56 53 51 50 47 37 41 39 36 39 37 39 39 40 37 35
56 59 64 58 48 41 40 40 47 70 80 84 84 91 92 90 88 89 86 82 81 77 71 66 62 62 62 60 56 55 53 50 38 41 40 39 42 40 33 31 30 34 32
81 79 70 71 65 50 42 47 44 56 76 83 84 88 95 93 90 88 88 86 83 79 76 72 67 65 67 63 59 58 55 53 44 42 38 40 36 32 30 30 29 28 30
94 102 88 88 85 75 54 44 44 44 66 79 83 86 94 96 94 92 90 89 86 85 81 77 73 70 71 68 64 61 61 54 51 49 47 39 36 32 30 28 28 29 29
67 79 96 96 97 92 85 57 47 44 49 70 81 88 91 97 99 96 93 91 87 86 84 81 80 76 76 75 76 73 68 60 58 56 50 43 37 34 32 32 31 31 29
64 69 76 80 91 99 98 88 64 49 43 63 79 87 91 98 100 103 98 94 92 88 89 91 89 83 81 82 80 77 78 67 64 59 50 44 40 37 35 34 33 31 29
67 64 61 68 77 85 95 103 88 68 52 53 66 86 88 96 102 103 104 100 97 94 94 98 97 92 91 87 83 84 81 77 69 59 51 45 41 39 38 36 34 32 30
63 63 60 65 70 78 84 95 99 89 66 59 64 78 86 92 98 100 103 105 101 103 103 105 106 99 96 92 89 89 86 80 72 62 52 47 42 43 42 40 37 34 32
67 65 63 61 67 72 75 78 83 96 87 61 66 76 83 84 92 101 104 106 107 109 111 110 108 103 96 94 92 90 88 83 75 64 56 50 48 44 43 42 39 36 34
64 66 67 64 63 68 76 67 67 70 90 81 66 74 84 87 84 90 108 107 111 115 121 121 116 110 98 99 97 93 91 84 76 66 59 55 54 50 45 43 40 39 39
62 65 66 65 65 70 78 70 67 74 75 93 73 74 84 90 88 84 98 106 115 119 126 124 123 114 108 106 103 100 96 87 76 69 63 59 57 51 47 45 41 41 38
50 56 60 65 67 64 69 70 77 82 87 88 88 78 81 88 91 91 92 108 111 117 119 127 119 112 107 119 113 107 95 86 77 70 65 63 60 56 50 46 39 40 39
49 51 55 55 65 64 70 79 77 81 83 79 95 84 83 89 92 89 98 97 111 115 118 122 123 128 119 117 122 92 89 83 75 69 67 65 63 59 54 50 46 43 45
55 54 57 59 69 63 70 78 72 77 83 78 83 86 82 87 92 88 101 104 118 117 119 127 124 129 132 131 96 98 55 59 66 68 67 65 63 60 57 53 50 48 47
57 57 57 59 63 68 65 72 68 75 81 78 73 80 86 91 93 96 96 105 102 108 115 131 134 133 135 122 111 73 38 27 68 68 65 62 61 60 58 55 52 49 47
61 59 60 62 63 70 75 71 70 71 76 82 78 82 85 90 96 93 96 88 102 110 108 106 112 119 118 126 121 76 73 63 42 41 63 64 63 62 60 58 55 50 48
59 59 59 59 61 68 73 71 70 71 81 77 76 72 84 94 98 92 88 88 87 87 103 101 124 138 132 142 136 117 79 62 62 52 60 68 66 66 63 60 57 53 51
57 56 57 56 64 64 65 74 87 76 77 76 78 73 88 100 96 94 86 82 96 76 85 87 99 112 122 138 132 119 96 85 76 62 52 73 72 71 70 65 62 59 53
Wind_Direction_850mb
350 349 338 285 257 244 234 239 236 222 215 208 204 199 194 193 191 190 189 184 180 182 181 175 174 169 165 159 155 154 149 149 145 144 141 139 140 140 139 140 137 139 145
356 354 355 326 282 249 237 234 231 225 218 210 205 202 198 195 195 195 191 189 184 184 184 179 176 174 171 165 160 159 150 151 154 150 141 138 140 142 142 145 141 141 144
355 351 355 356 315 273 239 231 227 227 221 213 207 204 200 198 197 197 195 192 190 185 186 184 179 178 177 171 167 163 157 149 153 153 147 140 144 143 144 150 146 145 142
348 354 348 352 328 268 244 234 228 229 223 215 209 206 202 200 198 199 198 195 194 189 188 185 185 181 177 176 174 170 160 153 155 156 141 144 145 147 145 149 153 150 148
332 337 346 343 347 282 246 235 229 227 224 217 211 208 205 203 201 200 201 198 197 194 190 188 187 186 181 181 179 175 166 159 154 153 152 154 146 147 147 146 150 154 154
309 326 333 336 340 285 255 242 233 229 224 221 213 211 207 206 205 202 204 202 199 196 193 187 190 191 187 184 181 178 172 165 159 155 156 164 160 155 154 156 151 148 149
293 306 317 315 328 305 256 245 239 232 225 222 217 213 211 211 209 206 205 205 203 198 197 192 193 195 192 186 184 181 178 172 162 156 159 157 161 164 160 156 155 154 154
292 294 299 301 313 296 261 251 243 236 229 224 221 217 213 213 212 210 209 207 205 203 200 199 196 191 193 189 187 185 181 178 165 163 160 165 163 162 162 163 164 164 163
283 284 290 292 296 298 265 247 245 238 231 226 224 220 214 214 213 213 211 210 208 207 204 201 201 192 192 192 191 188 184 181 171 169 162 170 161 166 168 173 177 175 179
279 277 283 281 284 293 276 262 244 238 235 231 226 223 219 216 215 216 215 213 210 208 207 203 204 195 194 193 192 190 187 184 176 171 164 175 174 178 180 180 180 180 182
289 288 287 285 284 287 293 283 245 243 235 235 231 226 224 221 218 218 216 215 214 211 209 206 208 200 195 196 194 194 190 185 184 180 177 186 187 193 192 190 191 187 189
289 277 281 285 283 284 286 285 270 236 247 235 233 231 226 225 224 218 216 216 216 214 211 209 209 200 196 195 194 196 194 190 190 190 191 193 196 199 203 204 203 202 202
292 290 283 278 280 279 282 282 282 256 252 243 237 232 228 226 224 221 219 216 216 217 212 210 209 201 198 195 195 195 197 195 194 193 195 197 204 211 213 213 208 205 203
286 286 291 285 279 277 277 277 277 278 248 252 241 234 230 227 225 223 220 217 216 215 213 211 210 207 201 199 199 194 199 197 197 197 200 202 206 213 212 206 201 199 198
282 286 286 288 284 282 275 273 271 272 265 251 248 239 233 228 227 225 222 221 218 217 214 212 212 211 204 201 201 199 199 200 200 201 206 207 208 207 205 203 202 199 199
281 281 283 284 286 283 279 272 268 267 268 255 247 243 237 232 227 226 224 222 219 219 216 215 216 214 207 203 201 202 201 200 202 204 208 208 209 206 201 201 202 201 199
280 279 278 278 283 278 279 274 270 267 264 263 251 242 242 237 230 227 224 222 221 221 220 219 218 217 209 203 203 202 202 202 203 205 208 210 205 205 205 204 200 200 200
281 279 278 275 273 273 272 273 266 264 264 261 260 243 238 238 236 225 226 226 224 222 222 219 218 214 211 203 202 202 206 204 203 205 207 207 202 200 202 204 201 200 200
281 278 276 274 272 271 266 271 267 261 263 258 258 248 238 237 235 233 230 225 226 223 226 224 218 216 208 202 200 201 202 203 204 205 207 204 203 200 200 201 203 205 201
283 278 274 273 271 267 262 263 266 265 255 256 252 251 242 236 236 233 224 225 221 224 223 224 221 215 211 202 197 196 194 197 201 204 204 201 201 203 203 201 192 194 197
288 284 277 273 268 265 266 265 264 263 256 253 250 252 244 237 235 231 228 222 226 234 229 227 221 219 206 200 189 185 187 193 196 199 200 201 201 201 201 202 200 199 197
293 288 279 273 268 264 262 259 258 258 259 253 251 251 246 237 231 229 231 230 227 229 232 225 223 210 205 198 183 177 163 179 192 195 198 200 200 201 201 203 205 203 203
290 287 281 273 269 264 257 257 255 255 259 247 243 243 238 233 230 227 229 228 228 233 229 220 218 212 200 197 190 176 157 178 184 192 196 199 200 201 203 204 206 206 206
292 286 280 275 267 263 255 250 247 248 248 243 237 236 233 231 226 225 223 226 229 228 223 223 228 217 203 209 191 179 180 189 177 176 197 201 202 204 205 205 207 209 209
294 289 282 276 266 263 255 243 238 240 246 241 236 233 231 222 218 224 220 217 221 230 228 231 220 212 214 201 203 191 184 182 188 179 191 202 206 208 210 209 209 210 212
297 290 285 276 267 266 254 241 236 238 242 240 229 227 220 211 219 218 217 219 224 230 232 226 229 210 214 204 198 185 185 177 182 194 196 201 206 210 210 212 212 210 212